Location: Drołtowice
(51.3397°N, 17.5853°E)
Time: 11:57:35
(UTC+02:00)

ISS - Visible Passes

Search period start: 22 September 2018 00:00
Search period end: 02 October 2018 00:00
Orbit: 403 x 408 km, 51.6° (Epoch: 22 September)

Date Brightness Start Highest point End Pass type
(mag) Time Alt. Az. Time Alt. Az. Time Alt. Az.
22 Sep -1.7 20:27:49 10° SSW 20:28:50 15° S 20:28:50 15° S visible
23 Sep -1.8 19:37:02 10° SSE 19:38:38 13° SE 19:39:34 12° ESE visible
23 Sep -1.5 21:11:22 10° SW 21:12:17 17° SW 21:12:17 17° SW visible
24 Sep -3.1 20:19:43 10° SW 20:22:46 34° SSE 20:22:49 34° SSE visible
25 Sep -2.4 19:28:17 10° SSW 19:30:59 23° SSE 19:33:12 13° E visible
25 Sep -2.4 21:03:52 10° WSW 21:05:53 34° WSW 21:05:53 34° WSW visible
26 Sep -3.7 20:12:01 10° WSW 20:15:16 56° SSE 20:16:08 40° ESE visible
26 Sep -0.7 21:48:25 10° W 21:48:49 13° W 21:48:49 13° W visible
27 Sep -3.2 19:20:17 10° SW 19:23:24 40° SSE 19:26:17 11° E visible
27 Sep -3.0 20:56:27 10° W 20:58:57 49° W 20:58:57 49° W visible
28 Sep -3.9 20:04:29 10° WSW 20:07:48 81° SSE 20:09:02 35° E visible
28 Sep -0.8 21:41:01 10° W 21:41:42 15° W 21:41:42 15° W visible
29 Sep -3.7 19:12:34 10° WSW 19:15:51 63° SSE 19:19:03 10° E visible
29 Sep -3.2 20:49:02 10° W 20:51:43 55° WNW 20:51:43 55° WNW visible
30 Sep -3.9 19:57:01 10° W 20:00:20 85° N 20:01:42 33° E visible
30 Sep -0.9 21:33:33 10° W 21:34:21 16° W 21:34:21 16° W visible
01 Oct -3.8 19:05:01 10° WSW 19:08:19 86° S 19:11:38 10° E visible
01 Oct -3.3 20:41:33 10° W 20:44:18 59° W 20:44:18 59° W visible
